Tracking 19576 objects as of 18-Feb-2019
HD Live streaming from Space Station
objects crossing your sky now

FLOCK 3P 81

Track FLOCK 3P 81 now!
10-day predictions
FLOCK 3P 81 is classified as:


NORAD ID: 42043
Int'l Code: 2017-008CZ
Perigee: 492.6 km
Apogee: 502.8 km
Inclination: 97.4 °
Period: 94.4 minutes
Semi major axis: 6868 km
RCS: Unknown
Launch date: February 15, 2017
Source: United States (US)
Launch site: SRIHARIKOTA (SRI)
aabbcc
Your satellite tracking list
Your tracking list is empty




NASA's NSSDC Master Catalog

Two Line Element Set (TLE):
1 42043U 17008CZ  19047.90988914 +.00001103 +00000-0 +46970-4 0  9993
2 42043 097.4241 116.3605 0007452 205.6470 154.4399 15.25083581110584
Source of the keplerian elements: AFSPC